Location: Julian California
(33.0790°N, 116.6010°W)
Time: 06:24:39
(UTC-08:00)

Daily predictions for brighter satellites

Satellite Brightness Start Highest point End
(mag) Time Altitude Azimuth Time Altitude Azimuth Time Altitude Azimuth
CZ-3A R/B 4.3 16:56:48 10° WNW 17:01:09 31° N 17:17:06 10° NE
Delta 2 Rocket 3.1 17:02:21 10° WSW 17:05:56 89° SSE 17:09:57 10° ENE
IDEFIX/ARIANE 42P 2.6 17:02:51 10° SSE 17:07:55 57° ENE 17:12:59 10° N
AQUARIUS 4.3 17:04:01 10° SSE 17:08:23 55° ENE 17:12:47 10° N
Cosmos 1812 2.9 17:10:32 10° S 17:14:22 76° W 17:18:13 10° N
SL-8 Rocket 4.2 17:10:24 10° N 17:16:33 77° W 17:22:40 10° S
KM-V1 3.7 17:17:06 10° WSW 17:19:36 43° S 17:21:25 11° E
SL-27 R/B 3.5 17:16:45 10° NNW 17:20:18 51° WSW 17:23:46 10° S
Thor Agena Rocket 3.9 17:17:07 10° N 17:22:20 71° WNW 17:27:34 10° SSW
Okean 1 3.5 17:23:35 10° S 17:27:36 76° W 17:31:40 10° N
Cosmos 2366 rocket 4.1 17:22:43 10° N 17:29:04 85° W 17:35:20 10° S
Cosmos 2251 Rocket 3.8 17:24:34 10° NNW 17:29:53 73° WSW 17:35:08 10° S
CORIOLIS 4.1 17:24:36 10° SSE 17:30:00 83° ENE 17:35:25 10° N
OTV 4 3.2 17:29:02 10° W 17:31:18 19° SSW 17:33:33 10° SSE
NOSS 2-1 (D) 3.2 17:33:42 10° SSW 17:37:29 74° ESE 17:40:54 14° NE
NOSS 2-1 (C) 3.2 17:34:23 10° SSW 17:38:11 72° ESE 17:41:33 14° NE
Cosmos 1346 Rocket 2.8 17:34:22 10° S 17:38:17 82° W 17:42:09 10° N
Timation 1 Rocket 4.3 17:35:01 10° SSW 17:40:54 73° ESE 17:46:51 10° NNE
Cosmos 2297 3.8 17:39:57 10° SSW 17:45:36 83° WNW 17:51:15 10° NNE
SMAP 4.3 17:49:07 10° S 17:53:32 43° W 17:57:57 10° NNW
COSMO-SKYMED 1 2.5 17:49:38 10° N 17:53:59 87° WNW 17:58:18 10° SSW
Meteor 2-21 4.4 17:48:20 10° N 17:54:32 83° E 18:00:38 10° S
NOSS 2-1 (E) 3.4 17:52:59 10° SW 17:56:48 74° WNW 17:59:37 19° NNE
Timation 2 Rocket 4.2 17:50:04 10° NNW 17:56:51 59° ENE 18:03:35 10° SE
Cosmos 2278 Rocket 4.0 17:52:46 10° WSW 17:57:35 29° WNW 18:02:27 10° N
NOSS 7 (D) 4.4 17:55:23 10° SSW 17:59:06 68° ESE 18:00:17 37° NE
Okean 2 4.2 17:56:28 10° SSE 17:59:51 29° E 17:59:51 29° E
ATLAS 3B CENTAUR R/B 4.1 17:39:44 10° W 18:02:47 70° S 18:08:44 21° ESE
Cosmos 1821 Rocket 4.0 17:57:19 10° N 18:03:13 51° E 18:09:07 10° SSE
Genesis I 3.1 17:59:56 10° NNW 18:03:51 89° WSW 18:07:43 10° SSE
Cosmos 2056 Rocket 3.5 18:04:50 10° S 18:10:07 60° ESE 18:13:05 26° NNE
Cosmos 1025 Rocket 2.9 18:05:59 10° S 18:10:19 73° E 18:13:23 19° NNE
OAO 1 4.4 18:04:58 10° WNW 18:10:28 84° NNE 18:12:58 34° E
METEOR-M 4.4 18:06:03 10° SE 18:11:01 42° ENE 18:16:02 10° N
Cosmos 921 Rocket 3.9 18:08:56 10° SSW 18:13:00 47° WNW 18:17:10 10° N
Cosmos 1605 Rocket 4.5 18:08:06 10° NNE 18:13:43 34° ENE 18:19:13 10° SE
Meteor 2-14 Rocket 4.4 18:08:18 10° N 18:14:28 88° E 18:20:35 10° S
Cosmos 1743 2.8 18:14:50 10° N 18:18:42 77° W 18:22:30 10° S
Cosmos 1484 Rocket 3.8 18:16:12 10° S 18:19:48 45° W 18:23:23 10° NNW
COSMOS 2487 3.8 18:17:12 10° NNW 18:20:36 41° WSW 18:23:57 10° S
Intercosmos 25 3.6 18:19:34 10° NNW 18:22:39 55° W 18:26:14 10° S
Cosmos 1624 Rocket 3.9 18:18:20 10° SSW 18:23:31 90° SE 18:26:24 27° NNE
Tiangong 1 3.5 18:22:03 10° NW 18:23:18 15° NNW 18:23:18 15° NNW
Cosmos 1833 Rocket 2.5 18:18:46 10° NNW 18:24:24 73° ENE 18:29:59 10° SSE
Cosmos 2082 Rocket 2.1 18:21:44 10° NNW 18:27:26 88° WSW 18:33:06 10° SSE
Meteor 1-28 Rocket 3.9 18:25:55 22° N 18:28:06 52° WNW 18:31:45 10° SSW
Cosmos 1371 Rocket 4.4 18:23:20 10° SSW 18:28:37 65° WNW 18:32:33 18° N
GEOS 3 Rocket 3.8 18:28:53 47° NE 18:28:53 47° NE 18:33:33 10° NNW
NOSS 3-4 (A) 4.1 18:25:13 10° NNW 18:31:55 43° NE 18:32:41 42° ENE
NOSS 3-4 (C) 4.1 18:25:19 10° NNW 18:32:01 42° NE 18:32:42 42° ENE
Meteor 1-15 Rocket 4.2 18:33:12 10° N 18:39:01 63° E 18:44:44 10° SSE
Cosmos 1727 Rocket 3.9 18:38:32 10° S 18:44:40 64° E 18:45:19 60° ENE
Delta 2 Rocket 4.3 18:44:45 10° W 18:47:27 41° WNW 18:47:27 41° WNW
Cosmos 1892 Rocket 4.1 18:50:36 10° SSW 18:54:19 54° WSW 18:54:19 54° WSW
Cosmos 1452 Rocket 4.4 18:54:08 10° S 18:57:14 37° S 18:57:14 37° S
Cosmos 2369 Rocket 3.3 18:57:21 10° S 19:00:26 33° S 19:00:26 33° S
FALCON 9 R/B 2.8 18:44:34 10° W 19:03:45 81° N 19:04:44 69° ENE
